Regional Weather Roundup
Issued by NWS

Home | Current Version | Previous Version | Graphics & Text | Print | Product List | Glossary On
Versions: 1 2 3 4 5 6 7 8 9 10 11 12 13 14 15 16 17 18 19 20 21 22 23 24 25 26 27 28 29 30 31 32 33 34 35 36 37 38 39 40 41 42 43 44 45 46 47 48 49 50
000
ASUS43 KLMK 171510
RWRKY
KENTUCKY REGIONAL WEATHER ROUNDUP
NATIONAL WEATHER SERVICE LOUISVILLE KY
1000 AM EST TUE JAN 17 2017

NOTE "FAIR" INDICATES FEW OR NO CLOUDS BELOW 12,000 FEET
WITH NO SIGNIFICANT WEATHER AND/OR OBSTRUCTIONS TO VISIBILITY.

KYZ001>023-026-027-061>063-070>075-171600-
WESTERN AND SOUTH CENTRAL KENTUCKY

CITY           SKY/WX    TMP DP  RH WIND       PRES   REMARKS
PADUCAH        CLOUDY    48  41  76 W14       30.03R
HENDERSON      CLOUDY    52  46  82 W8        30.00R
OWENSBORO      PTSUNNY   53  49  86 NW9       30.00R
HOPKINSVILLE   CLOUDY    59  57  92 SW13      30.01R
BOWLING GREEN  PTSUNNY   64  61  90 SW15      30.00R
GLASGOW        CLOUDY    62  62 100 SW13      30.00R
$$

KYZ024-025-028>034-038-045-046-053-171600-
NORTH CENTRAL KENTUCKY

CITY           SKY/WX    TMP DP  RH WIND       PRES   REMARKS
LOUISVILLE/SDF CLOUDY    63  57  81 SW9       29.93R
LOUISVILLE/LOU CLOUDY    63  57  81 SW12G18   29.94R
FORT KNOX      CLOUDY    61  59  94 SW10      29.94S
$$

KYZ035>037-039>044-047>052-055>060-089>105-171600-
NORTHEAST KENTUCKY

CITY           SKY/WX    TMP DP  RH WIND       PRES   REMARKS
LEXINGTON      CLOUDY    61  58  90 SW13      29.97R
COVINGTON      CLOUDY    60  56  86 SW16G22   29.90S
FRANKFORT      CLOUDY    61  57  87 SW14      29.93S
$$

KYZ054-064>069-076>088-106>120-171600-
SOUTHEAST KENTUCKY

CITY           SKY/WX    TMP DP  RH WIND       PRES   REMARKS
JACKSON        CLOUDY    59  55  87 VRB6      30.01F
LONDON         LGT RAIN  61  53  75 SW15      30.05R
SOMERSET       HVY RAIN  59  59 100 S5        30.06R
MIDDLESBORO    CLOUDY    59  55  86 S16G23    30.09F
MONTICELLO     RAIN      61  58  90 VRB6G22   30.06R
$$




USA.gov is the U.S. government's official web portal to all federal, state and local government web resources and services.